Location: Locum
(34.5932°N, 88.8437°W)
Time: 05:39:56
(UTC+00:00)

Daily predictions for brighter satellites

Satellite Brightness Start Highest point End
(mag) Time Altitude Azimuth Time Altitude Azimuth Time Altitude Azimuth
H-2A R/B 2.1 01:23:23 10° SSE 01:28:27 86° ENE 01:33:42 10° NNW
STARLINK-1126 4.0 01:28:09 10° NW 01:32:14 57° NE 01:36:17 10° ESE
Meteor 1-4 Rocket 3.5 01:29:00 10° SSW 01:32:20 49° W 01:35:43 10° N
Orbus 7S 4.3 01:31:28 10° SW 01:33:41 23° SSE 01:37:01 10° ESE
SL-4 R/B 1.4 01:33:23 10° NNW 01:36:11 60° WSW 01:38:46 10° SSE
Cosmos 1833 Rocket 2.7 01:30:57 10° NNW 01:36:36 80° ENE 01:42:13 10° SSE
STARLINK-1082 3.8 01:33:26 10° NW 01:37:32 64° NE 01:41:38 10° SE
BREEZE-M DEB 1.6 01:35:57 10° SW 01:38:14 57° SE 01:40:32 10° ENE
STARLINK-1444 1.6 01:36:12 10° SW 01:38:14 69° SE 01:40:15 10° NE
STARLINK-1452 1.6 01:36:49 10° SW 01:38:51 71° SE 01:40:51 10° NE
STARLINK-1450 1.5 01:38:07 10° SW 01:40:05 76° SE 01:42:03 10° NE
STARLINK-1436 (VISORSAT) 1.5 01:38:09 10° SW 01:40:09 76° SE 01:42:08 10° NE
FREGAT/IRIS 2.2 01:37:30 10° SSE 01:40:09 81° E 01:42:49 10° N
STARLINK-1392 1.5 01:38:14 10° SW 01:40:13 76° SE 01:42:10 10° NE
STARLINK-1398 1.6 01:38:12 10° SW 01:40:13 76° SE 01:42:13 10° NE
STARLINK-1414 1.6 01:38:13 10° SW 01:40:13 76° SE 01:42:12 10° NE
STARLINK-1399 1.5 01:38:15 10° SW 01:40:14 76° SE 01:42:11 10° NE
STARLINK-1415 1.5 01:38:15 10° SW 01:40:14 76° SE 01:42:11 10° NE
STARLINK-1416 1.6 01:38:14 10° SW 01:40:14 76° SE 01:42:13 10° NE
STARLINK-1394 1.5 01:38:16 10° SW 01:40:14 76° SE 01:42:12 10° NE
STARLINK-1395 1.5 01:38:16 10° SW 01:40:15 76° SE 01:42:12 10° NE
STARLINK-1393 1.5 01:38:16 10° SW 01:40:15 76° SE 01:42:12 10° NE
STARLINK-1419 1.6 01:38:16 10° SW 01:40:16 76° SE 01:42:15 10° NE
STARLINK-1408 1.6 01:38:15 10° SW 01:40:16 76° SE 01:42:14 10° NE
STARLINK-1396 1.5 01:38:17 10° SW 01:40:16 76° SE 01:42:13 10° NE
STARLINK-1397 1.5 01:38:17 10° SW 01:40:16 76° SE 01:42:13 10° NE
STARLINK-1404 1.5 01:38:18 10° SW 01:40:16 76° SE 01:42:14 10° NE
STARLINK-1401 1.5 01:38:17 10° SW 01:40:16 76° SE 01:42:13 10° NE
STARLINK-1453 1.5 01:38:18 10° SW 01:40:16 76° SE 01:42:14 10° NE
STARLINK-1402 1.5 01:38:18 10° SW 01:40:18 76° SE 01:42:15 10° NE
STARLINK-1417 1.5 01:38:18 10° SW 01:40:18 76° SE 01:42:15 10° NE
STARLINK-1420 1.6 01:38:17 10° SW 01:40:19 76° SE 01:42:18 10° NE
STARLINK-1406 1.5 01:38:20 10° SW 01:40:19 76° SE 01:42:17 10° NE
STARLINK-1413 1.5 01:38:19 10° SW 01:40:19 76° SE 01:42:16 10° NE
STARLINK-1422 1.6 01:38:19 10° SW 01:40:19 76° SE 01:42:19 10° NE
STARLINK-1460 1.6 01:38:19 10° SW 01:40:20 77° SE 01:42:20 10° NE
STARLINK-1440 1.5 01:38:21 10° SW 01:40:21 77° SE 01:42:19 10° NE
STARLINK-1458 1.6 01:38:20 10° SW 01:40:21 76° SE 01:42:20 10° NE
STARLINK-1445 1.5 01:38:22 10° SW 01:40:21 77° SE 01:42:19 10° NE
STARLINK-1443 1.5 01:38:23 10° SW 01:40:22 77° SE 01:42:20 10° NE
STARLINK-1454 1.5 01:38:23 10° SW 01:40:23 77° SE 01:42:20 10° NE
STARLINK-1457 1.5 01:38:24 10° SW 01:40:23 77° SE 01:42:21 10° NE
STARLINK-1456 1.5 01:38:25 10° SW 01:40:24 77° SE 01:42:22 10° NE
STARLINK-1437 1.6 01:38:23 10° SW 01:40:24 77° SE 01:42:23 10° NE
STARLINK-1451 1.5 01:38:25 10° SW 01:40:24 77° SE 01:42:22 10° NE
STARLINK-1446 1.6 01:38:23 10° SW 01:40:25 77° SE 01:42:24 10° NE
STARLINK-1442 1.5 01:38:26 10° SW 01:40:26 77° SE 01:42:23 10° NE
STARLINK-1447 1.6 01:38:26 10° SW 01:40:27 77° SE 01:42:27 10° NE
STARLINK-1423 1.6 01:38:27 10° SW 01:40:27 77° SE 01:42:27 10° NE
STARLINK-1455 1.6 01:38:26 10° SW 01:40:27 77° SE 01:42:27 10° NE
STARLINK-1405 1.5 01:38:28 10° SW 01:40:27 77° SE 01:42:26 10° NE
STARLINK-1421 1.5 01:38:28 10° SW 01:40:27 77° SE 01:42:25 10° NE
STARLINK-1400 1.5 01:38:29 10° SW 01:40:28 77° SE 01:42:26 10° NE
STARLINK-1441 1.6 01:38:27 10° SW 01:40:28 77° SE 01:42:28 10° NE
STARLINK-1410 1.5 01:38:29 10° SW 01:40:28 77° SE 01:42:26 10° NE
STARLINK-1407 1.5 01:38:30 10° SW 01:40:29 77° SE 01:42:27 10° NE
STARLINK-1439 1.5 01:38:30 10° SW 01:40:30 77° SE 01:42:27 10° NE
STARLINK-1448 1.6 01:38:29 10° SW 01:40:30 77° SE 01:42:30 10° NE
STARLINK-1409 1.5 01:38:31 10° SW 01:40:30 77° SE 01:42:28 10° NE
STARLINK-1449 1.6 01:38:29 10° SW 01:40:30 77° SE 01:42:30 10° NE
STARLINK-1351 1.5 01:38:31 10° SW 01:40:31 77° SE 01:42:29 10° NE
STARLINK-1370 1.5 01:38:32 10° SW 01:40:31 77° SE 01:42:29 10° NE
STARLINK-1418 1.5 01:38:32 10° SW 01:40:31 77° SE 01:42:29 10° NE
STARLINK-1434 1.5 01:38:32 10° SW 01:40:31 77° SE 01:42:29 10° NE
STARLINK-1403 1.5 01:38:33 10° SW 01:40:33 77° SE 01:42:30 10° NE
STARLINK-1433 1.5 01:38:34 10° SW 01:40:33 77° SE 01:42:31 10° NE
STARLINK-1438 1.5 01:38:36 10° SW 01:40:34 78° SE 01:42:33 10° NE
STARLINK-1411 1.5 01:38:35 10° SW 01:40:34 78° SE 01:42:32 10° NE
STARLINK-1412 1.6 01:38:37 10° SW 01:40:38 78° SE 01:42:38 10° NE
Iridium 51 4.0 01:37:58 10° S 01:41:44 76° E 01:45:17 10° N
STARLINK-1100 3.7 01:38:22 10° NW 01:42:30 71° NE 01:46:35 10° SE
Cosmos 2297 3.7 01:39:22 10° S 01:45:00 70° ESE 01:50:41 10° NNE
NOSS 2-2 (E) 3.4 01:41:36 10° SW 01:45:09 72° WNW 01:48:50 10° NNE
STARLINK-1083 3.6 01:43:19 10° NW 01:47:29 79° NE 01:51:21 11° SE
COSMOS 2406 4.1 01:42:03 10° NNW 01:47:36 49° WSW 01:53:04 10° S
Meteor 2-4 Rocket 3.8 01:42:45 10° S 01:48:06 80° W 01:53:29 10° N
STARLINK-29 3.0 01:46:59 10° SSW 01:50:09 55° SE 01:53:19 10° NE
Cosmos 2279 Rocket 4.4 01:45:23 10° N 01:51:20 45° E 01:57:13 10° SSE
STARLINK-1125 3.6 01:48:18 10° NW 01:52:26 88° NE 01:56:09 13° SE
Cosmos 2082 Rocket 2.3 01:46:59 10° NNW 01:52:40 65° ENE 01:58:17 10° SSE
Cosmos 2369 Rocket 3.3 01:48:41 10° SSE 01:52:59 23° E 01:57:16 10° NE
Cosmos 1975 3.7 01:49:36 10° NNW 01:53:30 51° W 01:57:21 10° S
ISS -3.3 01:51:56 10° NW 01:55:14 55° SW 01:58:06 13° SSE
Cosmos 332 Rocket 4.4 01:50:28 10° SSW 01:55:18 62° WNW 02:00:10 10° N
USA 186 2.7 01:54:16 10° S 01:56:43 38° W 01:59:24 10° NNW
STARLINK-1109 3.6 01:53:15 10° NW 01:57:25 83° SW 02:00:55 14° SE
STARLINK-1091 3.7 01:58:14 10° NW 02:02:22 75° SW 02:05:42 15° SE
SJ-6B 3.1 02:01:27 10° S 02:05:07 61° W 02:08:49 10° NNW
USA 267 4.0 01:58:56 10° SSE 02:05:10 47° SW 02:11:27 10° NW
STARLINK-1072 3.8 02:03:16 10° NW 02:07:23 66° SW 02:10:31 16° SSE
H-2A ROCKET BODY 3.7 02:03:29 10° SSW 02:07:30 26° SE 02:18:51 10° E
Sakura Rocket 4.3 02:02:44 10° WSW 02:07:55 46° S 02:13:42 15° ESE
Lacrosse 5 2.4 02:04:42 10° NW 02:09:37 53° SW 02:13:58 13° SSE
NOSS 2-2 (C) 4.3 02:07:26 10° SW 02:10:53 44° NW 02:14:25 10° NNE
STARLINK-1096 4.0 02:08:14 10° NW 02:12:18 58° SW 02:15:16 18° SSE
SL-08 RB Rocket 4.4 02:08:58 10° S 02:13:25 53° W 02:17:52 10° NNW
ATLAS 2AS CENTAUR R/B 3.5 02:08:49 10° S 02:15:47 37° ESE 02:22:55 10° NE
Aureole 2 Rocket 4.3 02:13:45 10° SW 02:16:29 28° WNW 02:19:07 10° N
STARLINK-1079 4.1 02:13:17 10° NW 02:17:18 52° SW 02:20:05 19° SSE
Meteor 1-23 Rocket 4.3 02:12:04 10° S 02:17:39 61° E 02:23:12 10° NNE
Cosmos 1066 Rocket 4.1 02:14:37 10° S 02:19:54 61° E 02:25:10 10° NNE
MetOp-A 4.3 02:16:30 10° S 02:21:51 75° WSW 02:27:13 10° NNW
STARLINK-1116 4.3 02:18:17 10° WNW 02:22:15 46° SW 02:24:51 19° SSE
STARLINK-52 3.4 02:22:23 10° SW 02:25:33 61° NW 02:28:43 10° NE
H-2A R/B 4.0 02:28:34 10° SSW 02:30:37 13° S 02:31:37 13° S
COSMOS 2455 4.1 02:30:26 19° ESE 02:30:47 19° ESE 02:34:54 10° ENE
Milstar 3 Cent rocket 3.8 02:25:34 10° SW 02:32:12 43° SSE 02:45:17 10° E
STARLINK-1102 4.5 02:30:37 10° NNW 02:34:32 40° NE 02:36:32 24° E
Chunghua 1 4.5 02:30:44 10° W 02:34:34 86° S 02:36:25 29° E
Spot 2 Rocket 4.1 02:35:31 25° ESE 02:37:50 40° ENE 02:42:32 10° N
Cosmos 1741 Rocket 4.2 02:33:13 10° NNW 02:38:24 67° WSW 02:42:12 19° S
GPS 2-04 Rocket1 2.8 02:36:05 10° W 02:39:24 45° SSW 02:40:07 38° SSE
STARLINK-1111 4.3 02:35:34 10° NNW 02:39:33 44° NE 02:41:19 27° E
Okean 1 Rocket 3.2 02:35:27 10° N 02:39:48 54° E 02:41:35 32° SE
SL-4 R/B 4.0 02:36:55 10° WSW 02:41:12 36° NW 02:45:39 10° NNE
FALCON 9 DEB 3.2 02:38:01 10° SW 02:41:26 78° NW 02:44:52 10° NE
STARLINK-1073 4.1 02:40:29 10° NW 02:44:31 49° NE 02:46:05 31° E
SPOT 5 4.5 02:46:23 20° E 02:48:01 23° ENE 02:52:10 10° NNE
STARLINK-1121 4.0 02:45:25 10° NW 02:49:29 55° NE 02:50:51 36° E
IGS 5A 4.0 02:48:39 35° ESE 02:49:37 41° ENE 02:53:32 10° N
SL-27 R/B 4.2 02:48:16 10° NNE 02:50:47 19° ENE 02:50:47 19° ENE
Cosmos 2263 4.2 02:48:43 20° S 02:52:26 55° ESE 02:57:53 10° NNE
ATLAS CENTAUR R/B 1.7 02:52:16 39° SSE 02:53:13 45° ESE 02:57:19 10° NE
STARLINK-1106 3.8 02:50:23 10° NW 02:54:29 61° NE 02:55:39 42° ESE
STARLINK-1362 4.3 02:56:04 34° E 02:56:04 34° E 02:58:42 10° ENE
Okean 2 3.6 02:54:12 44° SE 02:54:59 52° E 02:59:02 10° NNE
Terra 3.6 02:55:01 17° E 02:55:48 17° ENE 02:58:54 10° NNE
Resurs 01 Rocket 2.2 02:54:43 22° S 02:57:23 53° W 03:01:44 10° NNW
USA 245 3.5 02:58:45 34° NNE 02:58:45 34° NNE 03:00:25 10° N
Centaur D-1A AC-32 4.5 02:49:47 10° W 02:58:05 20° SW 03:00:30 16° SSW
ASTRO E2 3.7 02:55:30 10° W 02:58:52 31° SSW 02:58:52 31° SSW
STARLINK-1373 4.2 03:00:24 37° E 03:00:24 37° E 03:03:05 10° NE
STARLINK-1112 3.7 02:55:21 10° NW 02:59:29 68° NE 03:00:26 48° ESE
Abrixas rocket 2.2 02:57:33 10° WNW 03:00:09 61° W 03:00:09 61° W
APEX 4.3 02:56:20 10° SSW 03:03:05 83° ESE 03:08:44 10° NNE
STARLINK-1390 4.0 03:04:34 43° ENE 03:04:34 43° ENE 03:07:30 10° NE
Cosmos 1242 Rocket 3.9 03:04:40 27° ENE 03:04:40 27° ENE 03:06:59 10° NNE
Cosmos 1943 Rocket 2.8 02:58:34 10° SW 03:03:58 55° WNW 03:09:27 10° NNE
Cosmos 1302 Rocket 4.2 02:58:43 10° SSW 03:03:58 71° WNW 03:09:16 10° NNE
STARLINK-1128 3.6 03:00:18 10° NW 03:04:27 76° NE 03:05:13 56° ESE
Cosmos 2026 Rocket 4.2 03:02:16 33° SSE 03:04:45 52° E 03:10:53 10° NNE
SPOT 1/Viking Rocket 3.7 03:03:35 39° SE 03:05:09 54° ENE 03:10:10 10° N
STARLINK-1365 3.4 03:07:35 66° SSE 03:07:44 66° SE 03:11:44 10° NE
STARLINK-1113 3.5 03:05:17 10° NW 03:09:26 85° NE 03:10:01 65° SE
STARLINK-1119 3.4 03:10:15 10° NW 03:14:24 86° SW 03:14:47 73° SSE
CENTAUR R/B 3.8 03:07:09 10° NNW 03:14:59 45° NE 03:19:26 27° ESE
Cosmos 1766 3.1 03:12:56 10° N 03:16:56 80° E 03:17:08 77° SE
STARLINK-1114 3.5 03:15:15 10° NW 03:19:23 77° SW 03:19:34 75° SSW
ATLAS 3B R/B 4.4 03:17:00 10° N 03:22:02 21° NE 03:25:46 14° E
Cosmos 1992 Rocket 3.9 03:21:20 54° SE 03:22:08 62° ESE 03:27:17 10° NNE
STARLINK-1338 3.5 03:23:32 69° NE 03:23:32 69° NE 03:27:02 10° NE
STARLINK-1130 (DARKSAT) 3.6 03:20:13 10° NW 03:24:20 69° SW 03:24:20 69° SW
Cosmos 1656 Rocket 3.5 03:22:48 41° S 03:24:46 73° ESE 03:30:20 10° NNE
Meteor 1-21 4.1 03:25:54 51° SSE 03:27:11 68° E 03:32:45 10° NNE
STARLINK-1084 3.8 03:25:14 10° NW 03:29:08 60° WSW 03:29:08 60° WSW
STARLINK-1371 3.6 03:31:19 72° NW 03:31:19 72° NW 03:35:11 10° NE
Cosmos 292 Rocket 4.3 03:30:53 25° SW 03:33:32 56° WNW 03:38:19 10° N
STARLINK-1098 4.1 03:30:13 10° NW 03:33:54 52° WSW 03:33:54 52° WSW
STARLINK-1341 3.8 03:35:17 65° NW 03:35:23 66° NW 03:39:18 10° NE
NOSS 3-2 (C) 4.3 03:28:01 10° NNW 03:35:48 64° ENE 03:39:06 39° ESE
Cosmos 2369 Rocket 3.4 03:31:19 10° SW 03:36:39 41° WNW 03:41:59 10° N
SL-8 R/B 3.6 03:32:11 10° NW 03:36:59 74° SW 03:37:05 74° SSW
NOSS 3-4 (A) 3.7 03:32:52 10° SW 03:38:42 65° WNW 03:44:49 10° NNE
NOSS 3-4 (C) 3.6 03:32:57 10° SW 03:38:48 66° WNW 03:44:56 10° NNE
STARLINK-1123 4.3 03:35:14 10° WNW 03:38:41 45° WSW 03:38:41 45° WSW
STARLINK-1374 3.9 03:39:17 59° WNW 03:39:29 60° NW 03:43:23 10° NE
ATLAS 3B CENTAUR R/B 3.4 03:23:46 10° W 03:39:44 59° SSW 03:42:25 44° SE
ERS-1 Rocket 2.8 03:39:13 71° SSE 03:39:47 86° ENE 03:44:50 10° NNW
Cosmos 1655 Rocket 4.4 03:40:04 41° E 03:40:24 41° E 03:46:12 10° NNE
OAO 1 4.4 03:37:19 10° W 03:42:51 88° S 03:43:39 66° ESE
BREEZE-M DEB (TANK) 3.7 03:33:57 10° NW 03:43:27 57° NNE 03:44:45 43° E
STARLINK-1339 4.1 03:43:14 51° WNW 03:43:39 54° NW 03:47:31 10° NE
Cosmos 1975 Rocket 4.0 03:42:41 35° WSW 03:43:50 43° W 03:48:03 10° N
Cosmos 1025 Rocket 3.9 03:45:12 40° NE 03:45:12 40° NE 03:48:15 10° NNE
STARLINK-1377 4.3 03:47:12 44° WNW 03:47:49 49° NW 03:51:40 10° NE
STARLINK-1353 4.5 03:51:06 38° W 03:52:00 45° NW 03:55:48 10° NNE
Cosmos 1470 3.9 03:51:45 10° N 03:54:15 37° NNE 03:54:15 37° NNE
Cosmos 1867 4.0 03:52:03 10° NNW 03:57:19 47° ENE 03:57:37 47° ENE
Cosmos 968 Rocket 3.4 03:52:51 10° NNW 03:57:51 76° NE 03:57:51 76° NE
ATLAS 5 CENTAUR R/B 2.8 03:50:40 10° SW 04:00:14 65° WNW 04:03:22 10° NNE
RESURS DK-1 4.3 04:08:27 22° NE 04:08:27 22° NE 04:10:02 10° NNE
ATLAS 2AS CENTAUR R/B 3.9 03:59:01 10° SW 04:06:36 48° NW 04:14:17 10° NNE
Cosmos 1271 Rocket 4.3 04:16:44 33° NW 04:16:44 33° NW 04:19:34 10° N
COSMOS 2455 3.4 04:13:28 31° WSW 04:16:11 55° WNW 04:22:06 10° NNE
Cosmos 1953 4.1 04:12:45 10° N 04:14:45 26° NNE 04:14:45 26° NNE
Cosmos 1455 Rocket 4.3 04:14:46 10° NNW 04:18:11 35° WNW 04:18:11 35° WNW
Meteor 2-19 Rocket 4.4 04:22:19 71° E 04:22:19 71° E 04:28:14 10° NNE
Cosmos 1417 Rocket 4.4 04:16:47 10° N 04:23:11 86° W 04:23:35 79° SSW
Thor Agena Rocket 4.0 04:19:02 10° NNE 04:23:12 53° NE 04:23:12 53° NE
SPOT 5 4.0 04:25:37 38° WSW 04:25:45 38° W 04:30:44 10° NNW
ATLAS CENTAUR R/B 4.2 04:29:26 10° W 04:32:16 17° NW 04:35:01 10° N
Terra 2.9 04:33:54 38° WNW 04:33:54 38° WNW 04:37:40 10° NNW
Meteor 2-10 4.4 04:31:30 10° N 04:35:35 59° NNW 04:35:35 59° NNW
SeaSat 1 3.4 04:46:57 10° NNE 04:50:08 41° NNE 04:50:08 41° NNE
Cosmos 2297 Rocket 4.2 04:48:55 10° NNE 04:52:39 18° ENE 04:53:23 17° ENE
S3M 4.2 04:49:09 10° NNW 04:55:11 59° W 04:55:11 59° W
Cosmos 2315 Rocket 4.1 04:52:25 10° N 04:58:03 65° NE 04:58:03 65° NE
CENTAUR R/B 3.7 04:57:56 10° NW 05:05:52 45° WSW 05:06:37 44° SW
Milstar 3 Cent rocket 4.4 05:01:22 10° WSW 05:12:00 69° S 05:36:01 10° E
ATLAS 3B R/B 2.7 05:06:28 10° NNW 05:13:00 76° W 05:13:00 76° W
Exosat Rocket 4.4 05:10:40 10° NNW 05:17:55 61° W 05:17:55 61° W
ALOS 2 4.4 05:23:18 30° N 05:23:18 30° N 05:25:34 10° N
Cosmos 2227 Rocket 3.5 05:25:37 10° N 05:30:27 31° ENE 05:30:27 31° ENE
Cosmos 1745 Rocket 4.4 05:50:15 56° NE 05:50:15 56° NE 05:55:17 10° NNE
FALCON 9 R/B 3.8 05:53:12 36° E 05:53:12 36° E 06:00:49 10° E
Lacrosse 4 Rocket 4.0 05:50:02 10° N 05:52:03 17° NE 05:52:03 17° NE
CZ-4C R/B 3.0 06:00:11 43° N 06:00:11 43° N 06:04:13 10° NNE
Cosmos 1980 Rocket 3.3 06:12:34 35° ENE 06:12:34 35° ENE 06:16:15 10° NE
SJ 16-02 3.3 06:10:43 10° N 06:12:52 28° N 06:12:52 28° N
Cosmos 2369 4.3 06:21:00 55° N 06:21:00 55° N 06:25:23 10° NNE
Cosmos 2297 Rocket 3.2 06:31:32 10° NNW 06:35:10 39° NW 06:35:10 39° NW
Cosmos 1709 Rocket 4.0 06:38:36 72° N 06:38:36 72° N 06:44:06 10° N
USA 215 3.8 06:35:30 27° ESE 06:38:57 53° NE 06:45:17 10° NW
SL-16 R/B 4.2 06:39:30 19° E 06:42:05 26° ENE 06:47:00 10° NNE
Cosmos 1937 Rocket 4.2 06:41:41 10° NNW 06:45:39 51° N 06:45:39 51° N
Cosmos 2322 Rocket 4.0 06:49:46 20° E 06:49:46 20° E 06:53:22 10° NE
Cosmos 2082 4.1 06:45:19 10° NNW 06:49:50 58° NNW 06:49:50 58° NNW
Cosmos 2278 4.2 06:57:14 52° NW 06:57:14 52° NW 07:02:06 10° NNE
Cosmos 1697 Rocket 3.8 06:57:30 34° NW 06:57:30 34° NW 07:02:22 10° N
Cosmos 2285 Rocket 3.9 06:57:27 10° NNW 07:03:42 84° NE 07:03:42 84° NE
Resurs 1-4 Rocket 2.6 07:08:15 10° NNE 07:13:02 52° E 07:13:02 52° E
Cosmos 2227 Rocket 3.8 07:09:38 10° NW 07:12:15 23° WNW 07:12:15 23° WNW
IRAS Rocket 4.3 07:15:35 74° NNW 07:15:35 74° NNW 07:20:37 10° NNW
SL-16 R/B 2.5 07:24:07 54° ESE 07:24:07 54° ESE 07:29:33 10° NNE
Cosmos 2074 Rocket 3.9 07:24:26 75° SE 07:24:53 80° E 07:31:11 10° N
Lacrosse 4 Rocket 4.1 07:28:00 10° NW 07:28:20 12° NW 07:28:20 12° NW
Cosmos 2298 Rocket 4.0 07:29:51 10° NNW 07:35:10 75° ENE 07:35:12 75° ENE
BREEZE-M DEB (TANK) 3.0 07:41:43 71° NW 07:41:52 72° NNW 07:51:58 10° NE
CZ-2D R/B 2.0 07:36:43 10° N 07:41:49 81° NW 07:41:49 81° NW
Cosmos 2360 Rocket 3.2 07:46:14 31° SE 07:47:19 34° ESE 07:52:21 10° NE
Cosmos 2184 Rocket 3.9 07:48:41 63° WSW 07:49:13 67° W 07:55:21 10° N
Cosmos 2327 Rocket 4.4 07:50:48 61° S 07:52:02 90° E 07:58:27 10° N
Cosmos 1980 Rocket 3.8 07:54:20 21° WNW 07:55:05 22° WNW 07:59:23 10° N
Cosmos 1076 Rocket 4.1 07:55:10 51° E 07:55:11 51° E 07:59:25 10° NNE
Cosmos 1892 3.6 07:56:58 45° ENE 07:56:58 45° ENE 08:00:02 10° NNE
Cosmos 1610 Rocket 4.3 07:56:59 62° SSW 07:58:09 86° W 08:04:20 10° N
CRYOSAT 2 4.2 07:55:01 10° N 07:59:56 89° E 08:00:05 84° S
STARLINK-24 4.4 08:01:58 46° E 08:01:58 46° E 08:05:01 10° NE
CBERS-1 4.0 07:56:44 10° NNE 08:01:52 74° ESE 08:02:33 64° SSE
Cosmos 1869 3.8 07:59:00 10° N 08:02:21 55° NE 08:02:21 55° NE
Timation 1 Rocket 4.2 07:59:18 10° NNW 08:05:13 65° WSW 08:05:50 61° SW
Cosmos 2219 Rocket 4.5 08:02:47 10° SE 08:05:48 15° E 08:08:50 10° ENE
STARLINK-1025 4.3 08:11:08 47° ESE 08:11:08 47° ESE 08:14:41 10° NE
STARLINK-25 4.2 08:14:07 43° NE 08:14:07 43° NE 08:16:34 10° NE
STARLINK-1017 4.0 08:15:54 54° ESE 08:15:54 54° ESE 08:19:40 10° NE
Cosmos 2263 Rocket 2.0 08:12:38 10° NNW 08:18:13 77° WSW 08:19:55 46° S
IRIDIUM 106 4.2 08:18:51 55° S 08:20:03 88° W 08:25:18 10° N
Cosmos 962 Rocket 4.4 08:18:03 41° S 08:20:23 83° E 08:26:35 10° N
STARLINK-1023 3.7 08:20:41 63° ESE 08:20:41 63° ESE 08:24:39 10° NE
USA 215 3.8 08:22:46 36° WSW 08:22:46 36° WSW 08:27:59 10° WNW
Cosmos 2154 Rocket 4.2 08:21:54 45° SW 08:23:24 55° W 08:29:31 10° N
ADEOS II 2.0 08:18:34 10° NNE 08:23:51 88° WNW 08:25:16 50° SSW
CZ-4B R/B 4.1 08:19:24 10° N 08:24:22 44° WNW 08:25:12 41° W
SL-16 R/B 2.8 08:24:36 42° WSW 08:25:21 43° W 08:31:12 10° NNW
STARLINK-1007 3.5 08:25:30 71° SE 08:25:34 71° SE 08:29:41 10° NE
STARLINK-81 3.4 08:26:24 70° NNE 08:26:24 70° NNE 08:29:41 10° NE
NPP 4.4 08:22:10 10° N 08:27:01 35° WNW 08:27:54 33° W
STARLINK-54 3.5 08:28:09 64° NNW 08:28:09 64° NNW 08:31:32 10° NE
IDEFIX/ARIANE 42P 4.1 08:24:09 10° NE 08:28:43 29° E 08:32:34 13° SSE
STARLINK-77 3.4 08:29:34 70° NNW 08:29:34 70° NNW 08:32:59 10° NE
STARLINK-1048 3.4 08:30:16 74° S 08:30:31 79° SE 08:34:40 10° NE
Cosmos 2221 2.8 08:27:12 10° NNW 08:31:16 48° W 08:31:16 48° W
IRS-1D 3.7 08:26:28 10° N 08:31:36 56° WNW 08:32:45 45° WSW
Cosmos 1408 2.4 08:31:51 88° SSE 08:31:54 89° ENE 08:35:35 10° N
Cosmos 2322 Rocket 2.7 08:31:35 37° WSW 08:32:58 44° WNW 08:38:20 10° N
Cosmos 1825 2.6 08:32:28 46° SE 08:33:10 55° E 08:36:51 10° NNE
STARLINK-79 3.4 08:34:17 63° NW 08:34:17 63° NW 08:37:51 10° NE
In-Cosmos 22 Rocket 4.4 08:33:14 43° SW 08:34:36 54° W 08:40:01 10° N
Cosmos 1842 Rocket 4.4 08:31:04 10° NNW 08:34:41 34° WNW 08:34:41 34° WNW
STARLINK-1049 3.4 08:35:03 70° SW 08:35:30 88° SE 08:39:39 10° NE
STARLINK-78 3.4 08:35:49 60° NW 08:35:52 60° NW 08:39:26 10° NE
IRS-1C 4.0 08:30:58 10° NNE 08:36:19 84° WNW 08:38:18 40° SSW
STARLINK-57 3.6 08:37:28 53° NW 08:37:36 54° NW 08:41:10 10° NE
STARLINK-49 3.5 08:38:57 55° NW 08:39:07 55° NW 08:42:41 10° NE
ARIANE 5 R/B 2.5 08:34:31 10° NNE 08:39:32 77° ESE 08:41:40 35° S
STARLINK-1051 3.5 08:39:48 62° WSW 08:40:27 83° NW 08:44:36 10° NE
STARLINK-27 3.6 08:40:31 52° WNW 08:40:44 53° NW 08:44:17 10° NE
STARLINK-74 3.6 08:42:04 49° WNW 08:42:22 51° NW 08:45:54 10° NE
STARLINK-39 3.7 08:43:32 47° WNW 08:43:53 49° NW 08:47:23 10° NE
STARLINK-31 3.8 08:45:04 44° WNW 08:45:29 46° NW 08:48:57 10° NE
STARLINK-69 4.0 08:46:44 38° WNW 08:47:15 40° NW 08:50:40 10° NNE
STARLINK-21 3.9 08:48:11 39° WNW 08:48:44 42° NW 08:52:10 10° NNE
Cosmos 2058 3.9 08:48:46 30° W 08:48:53 30° WNW 08:52:37 10° NNW
Cosmos 1315 Rocket 4.0 08:46:24 10° NNW 08:49:04 26° WNW 08:49:04 26° WNW
STARLINK-1028 3.7 08:49:23 46° WSW 08:50:25 66° NW 08:54:33 10° NE
STARLINK-45 4.2 08:49:56 33° WNW 08:50:36 37° NW 08:53:57 10° NNE
STARLINK-70 4.2 08:51:10 33° WNW 08:51:51 37° NW 08:55:12 10° NNE
Resurs 1-4 Rocket 3.9 08:49:29 10° NNW 08:52:46 17° WNW 08:54:06 15° W
STARLINK-1010 3.9 08:52:24 40° W 08:53:41 59° NW 08:57:52 10° NE
STARLINK-76 4.2 08:53:00 33° WNW 08:53:46 38° NW 08:57:09 10° NNE
Cosmos 2366 rocket 4.0 08:50:31 20° S 08:54:57 81° E 09:01:16 10° N
Nadezhda 3 Rocket 4.5 08:49:17 10° NNW 08:55:11 42° W 08:57:47 29° SW
STARLINK-23 4.2 08:54:26 32° WNW 08:55:14 36° NW 08:58:35 10° NNE
STARLINK-1021 3.8 08:54:13 40° WSW 08:55:27 59° NW 08:59:33 10° NE
STARLINK-32 4.3 08:55:55 30° WNW 08:56:47 35° NW 09:00:05 10° NNE
CZ-3A R/B 4.4 08:55:28 10° SSE 08:58:32 14° SE 09:03:32 10° ESE
STARLINK-40 4.4 08:57:35 29° WNW 08:58:33 34° NW 09:01:50 10° NNE
STARLINK-44 4.4 08:59:01 27° WNW 09:00:02 33° NW 09:03:17 10° NNE
STARLINK-1019 4.0 08:58:57 35° W 09:00:23 53° NW 09:04:27 10° NE
BREEZE-M TANK 3.8 09:00:19 21° S 09:01:23 24° SE 09:03:56 10° E
GEOS 3 Rocket 3.6 08:56:39 10° SSE 09:01:43 61° WSW 09:06:54 10° NW
STARLINK-1012 4.2 09:03:44 30° W 09:05:23 48° NW 09:09:25 10° NE
COBE Rocket 3.9 09:02:52 16° S 09:06:57 75° W 09:12:06 10° NNW
SL-16 R/B 3.9 09:05:59 15° W 09:08:27 19° WNW 09:12:23 10° NNW
Spot 4 Rocket 4.0 09:04:29 10° N 09:09:37 76° WNW 09:12:58 22° SSW
COSMOS 2428 3.2 09:06:24 15° S 09:10:58 56° ESE 09:16:30 10° NNE
Cosmos 1844 Rocket 3.2 09:07:35 10° NNW 09:13:07 60° ENE 09:18:36 10° SSE
Cosmos 1818 4.4 09:10:05 15° S 09:14:19 46° ESE 09:19:29 10° NE
STARLINK-1026 4.5 09:13:18 23° W 09:15:22 39° NW 09:19:17 10° NNE
Cosmos 1408 Rocket 3.8 09:11:56 14° S 09:15:33 65° E 09:19:50 10° NNE
USA 229 DEB 4.1 09:08:41 10° NW 09:15:45 47° WSW 09:23:01 10° S
USA 229 4.1 09:08:48 10° NW 09:15:51 48° WSW 09:23:09 10° S
NOSS 3-1 (C) 4.5 09:09:40 10° NW 09:17:14 45° WSW 09:25:31 10° S
Meteor 1-28 Rocket 3.2 09:16:03 21° S 09:18:24 58° W 09:22:06 10° NNW
Cosmos 1538 Rocket 4.1 09:15:42 23° SSW 09:19:03 65° WNW 09:24:25 10° N
STARLINK-1052 4.4 09:20:10 20° SSW 09:22:40 42° SE 09:26:35 10° ENE
STARLINK-60 2.8 09:20:24 10° NW 09:23:34 68° SW 09:26:45 10° SE
CZ-2D R/B 3.9 09:20:17 10° N 09:24:25 47° WNW 09:27:02 21° SW
NOSS 3-1 (A) 4.2 09:17:14 10° NW 09:25:07 61° WSW 09:33:50 10° SSE
SL-4 R/B 2.2 09:20:27 10° NW 09:25:11 79° SW 09:29:38 10° SE
Cosmos 1727 Rocket 4.2 09:19:35 10° N 09:25:45 75° E 09:31:55 10° S
SL-08 R/B 3.9 09:25:19 19° SSW 09:27:59 35° W 09:32:11 10° NNW
Cosmos 2360 Rocket 3.4 09:28:00 17° WSW 09:31:17 28° WNW 09:36:05 10° N
ERS-2 2.4 09:29:06 15° S 09:31:54 45° W 09:35:26 10° NNW
H-2A R/B 2.1 09:27:35 10° S 09:31:57 68° WSW 09:36:25 10° NNW
STARLINK-1444 2.0 09:29:39 10° NW 09:31:59 72° SW 09:34:26 10° SE
STARLINK-1452 2.0 09:30:17 10° NW 09:32:36 70° SW 09:35:04 10° SE
STARLINK-1033 4.1 09:29:45 18° SSW 09:32:36 53° SE 09:36:39 10° NE
Cosmos 1766 Rocket 4.1 09:30:07 20° SW 09:32:43 40° W 09:36:49 10° N
Cosmos 1606 2.6 09:29:15 10° N 09:33:02 82° W 09:36:49 10° S
Okean 3 Rocket 4.4 09:30:43 20° SW 09:33:16 35° W 09:37:26 10° NNW
STARLINK-1450 2.0 09:31:13 10° NW 09:33:29 67° SW 09:35:53 10° SE
STARLINK-1392 2.0 09:31:24 10° NW 09:33:40 66° SW 09:36:04 10° SE
STARLINK-1415 2.0 09:31:24 10° NW 09:33:41 66° SW 09:36:05 10° SE
STARLINK-1399 2.0 09:31:25 10° NW 09:33:41 66° SW 09:36:05 10° SE
STARLINK-1394 2.0 09:31:26 10° NW 09:33:42 66° SW 09:36:06 10° SE
STARLINK-1395 2.0 09:31:26 10° NW 09:33:42 66° SW 09:36:07 10° SE
STARLINK-1393 2.0 09:31:26 10° NW 09:33:43 66° SW 09:36:07 10° SE
STARLINK-1453 2.0 09:31:27 10° NW 09:33:43 66° SW 09:36:08 10° SE
STARLINK-1401 2.0 09:31:27 10° NW 09:33:43 66° SW 09:36:07 10° SE
STARLINK-1396 2.0 09:31:27 10° NW 09:33:43 66° SW 09:36:07 10° SE
STARLINK-1397 2.0 09:31:27 10° NW 09:33:44 66° SW 09:36:08 10° SE
STARLINK-1404 2.0 09:31:29 10° NW 09:33:45 66° SW 09:36:09 10° SE
STARLINK-1417 2.0 09:31:30 10° NW 09:33:46 66° SW 09:36:10 10° SE
STARLINK-1402 2.0 09:31:30 10° NW 09:33:46 66° SW 09:36:10 10° SE
STARLINK-1413 2.0 09:31:31 10° NW 09:33:47 66° SW 09:36:11 10° SE
STARLINK-1406 2.0 09:31:32 10° NW 09:33:47 66° SW 09:36:12 10° SE
STARLINK-1440 2.0 09:31:33 10° NW 09:33:50 66° SW 09:36:14 10° SE
STARLINK-1445 2.0 09:31:34 10° NW 09:33:50 66° SW 09:36:15 10° SE
STARLINK-1414 2.0 09:31:32 10° NW 09:33:50 66° SW 09:36:17 10° SE
STARLINK-1454 2.0 09:31:35 10° NW 09:33:51 66° SW 09:36:16 10° SE
STARLINK-1443 2.0 09:31:35 10° NW 09:33:51 66° SW 09:36:15 10° SE
STARLINK-1416 2.0 09:31:34 10° NW 09:33:52 66° SW 09:36:19 10° SE
STARLINK-1457 2.0 09:31:36 10° NW 09:33:52 66° SW 09:36:17 10° SE
STARLINK-1408 2.0 09:31:35 10° NW 09:33:53 66° SW 09:36:19 10° SE
STARLINK-1456 2.0 09:31:37 10° NW 09:33:53 66° SW 09:36:17 10° SE
STARLINK-1451 2.0 09:31:37 10° NW 09:33:53 66° SW 09:36:18 10° SE
STARLINK-1442 2.0 09:31:38 10° NW 09:33:54 66° SW 09:36:19 10° SE
STARLINK-1436 (VISORSAT) 2.0 09:31:37 10° NW 09:33:55 66° SW 09:36:22 10° SE
STARLINK-1419 2.0 09:31:38 10° NW 09:33:57 66° SW 09:36:23 10° SE
STARLINK-1405 2.0 09:31:41 10° NW 09:33:57 65° SW 09:36:22 10° SE
STARLINK-1421 2.0 09:31:42 10° NW 09:33:58 65° SW 09:36:22 10° SE
STARLINK-1398 2.0 09:31:39 10° NW 09:33:58 66° SW 09:36:25 10° SE
STARLINK-1410 2.0 09:31:42 10° NW 09:33:58 65° SW 09:36:23 10° SE
STARLINK-1400 2.0 09:31:42 10° NW 09:33:58 65° SW 09:36:23 10° SE
STARLINK-1407 2.0 09:31:43 10° NW 09:33:59 65° SW 09:36:24 10° SE
STARLINK-1439 2.0 09:31:44 10° NW 09:34:00 65° SW 09:36:24 10° SE
STARLINK-1409 2.0 09:31:44 10° NW 09:34:00 65° SW 09:36:24 10° SE
STARLINK-1351 2.0 09:31:45 10° NW 09:34:01 65° SW 09:36:26 10° SE
STARLINK-1370 2.0 09:31:45 10° NW 09:34:01 65° SW 09:36:26 10° SE
STARLINK-1422 2.0 09:31:43 10° NW 09:34:01 66° SW 09:36:28 10° SE
STARLINK-1418 2.0 09:31:45 10° NW 09:34:01 65° SW 09:36:26 10° SE
STARLINK-1420 2.0 09:31:42 10° NW 09:34:01 66° SW 09:36:28 10° SE
STARLINK-1434 2.0 09:31:45 10° NW 09:34:01 65° SW 09:36:26 10° SE
STARLINK-1403 2.0 09:31:46 10° NW 09:34:02 65° SW 09:36:27 10° SE
STARLINK-1433 2.0 09:31:48 10° NW 09:34:04 65° SW 09:36:29 10° SE
STARLINK-1460 2.0 09:31:45 10° NW 09:34:04 66° SW 09:36:31 10° SE
STARLINK-1411 2.0 09:31:49 10° NW 09:34:05 65° SW 09:36:30 10° SE
STARLINK-1438 2.0 09:31:50 10° NW 09:34:06 65° SW 09:36:30 10° SE
STARLINK-1458 2.0 09:31:49 10° NW 09:34:07 66° SW 09:36:34 10° SE
STARLINK-1423 2.0 09:31:52 10° NW 09:34:10 66° SW 09:36:37 10° SE
STARLINK-1446 2.0 09:31:52 10° NW 09:34:10 66° SW 09:36:38 10° SE
STARLINK-1437 2.0 09:31:54 10° NW 09:34:12 65° SW 09:36:39 10° SE
STARLINK-1447 2.0 09:31:56 10° NW 09:34:15 65° SW 09:36:42 10° SE
STARLINK-1455 2.0 09:31:56 10° NW 09:34:16 65° SW 09:36:43 10° SE
STARLINK-1441 2.0 09:31:57 10° NW 09:34:16 65° SW 09:36:43 10° SE
STARLINK-1448 2.0 09:32:01 10° NW 09:34:19 65° SW 09:36:47 10° SE
STARLINK-1449 2.0 09:32:02 10° NW 09:34:21 65° SW 09:36:48 10° SE
STARLINK-1412 2.0 09:32:10 10° NW 09:34:30 65° SW 09:36:57 10° SE
Cosmos 1151 Rocket 3.0 09:30:55 10° N 09:35:20 86° W 09:39:42 10° S
deb Chang Zheng 4 4.0 09:31:59 10° NNE 09:36:13 60° ESE 09:40:23 10° S
Cosmos 2151 4.3 09:34:37 18° WSW 09:36:30 23° WNW 09:39:59 10° NNW
STARLINK-1031 3.9 09:34:32 17° SSW 09:37:33 60° SE 09:41:38 10° NE
CZ-2C R/B 3.0 09:33:59 10° N 09:37:39 49° WNW 09:40:31 16° SW
Cosmos 2333 Rocket 2.3 09:37:22 14° SSW 09:42:07 64° WNW 09:47:45 10° NNE
STARLINK-1024 3.8 09:39:18 16° SSW 09:42:31 68° SE 09:46:38 10° NE
Cosmos 1515 Rocket 4.0 09:39:41 10° N 09:44:01 64° E 09:48:18 10° SSE
STARLINK-1035 3.7 09:44:06 15° SW 09:47:29 76° SE 09:51:38 10° NE
Cosmos 2322 4.4 09:43:59 14° SW 09:48:24 38° WNW 09:53:44 10° N
Lacrosse 5 rocket 1.2 09:45:32 15° SW 09:48:53 76° NW 09:52:47 10° NE
Cosmos 2219 Rocket 2.3 09:44:09 13° SW 09:49:09 59° WNW 09:54:40 10° NNE
Cosmos 2112 Rocket 4.4 09:47:06 10° S 09:52:16 67° ESE 09:57:32 10° NNE
STARLINK-1032 3.6 09:48:52 14° SW 09:52:26 85° SE 09:56:36 10° NE
BREEZE-M DEB (TANK) 3.1 09:47:52 12° WSW 09:52:53 66° NNW 09:55:45 10° NE
Meteor 1-26 Rocket 4.5 09:47:21 10° N 09:53:17 85° E 09:59:17 10° S
STARLINK-1037 3.6 09:52:08 13° SW 09:55:50 88° NW 09:59:58 10° NE
STARLINK-29 2.8 09:52:45 10° NW 09:55:55 74° SW 09:59:03 10° SE
SAR-Lupe-1 4.3 09:53:21 10° SSE 09:56:51 74° ENE 10:00:26 10° N
STARLINK-1011 3.6 09:53:38 12° SW 09:57:25 86° NW 10:01:34 10° NE
Cosmos 2344 3.6 09:50:21 10° SSW 09:58:06 85° WNW 10:05:48 10° NNE
Cosmos 1633 2.5 09:55:09 10° S 09:58:43 75° W 10:02:19 10° N
BREEZE-M DEB (TANK) 4.5 09:56:40 10° NNW 09:59:18 29° NE 10:04:43 10° ESE
Shenzhou-11 Module 4.4 09:58:42 10° NNW 10:00:25 17° NNE 10:02:08 10° ENE
ATLAS 5 CENTAUR R/B 1.4 09:57:48 10° SSW 10:01:49 89° ESE 10:06:10 10° NNE
CZ-2C R/B 2.7 09:56:59 10° NNE 10:02:12 82° ESE 10:07:20 10° S
STARLINK-1036 3.7 09:58:26 11° SW 10:02:25 77° NW 10:06:33 10° NE
USA 32 4.0 09:59:03 10° S 10:04:16 75° W 10:09:31 10° N
Cosmos 1743 Rocket 3.6 10:01:02 10° SSW 10:05:24 64° W 10:09:46 10° N
STARLINK-1044 3.7 10:03:16 10° SW 10:07:23 69° NW 10:11:31 10° NE
IDEFIX/ARIANE 42P 3.7 10:03:44 10° NNW 10:08:10 28° WNW 10:12:34 10° SW
CZ-4B R/B 1.2 10:05:52 10° SSE 10:08:55 83° ENE 10:12:01 10° N
Cosmos 1346 Rocket 2.8 10:07:22 10° SSW 10:11:22 77° W 10:15:21 10° N
STARLINK-1047 3.8 10:08:15 10° SW 10:12:20 62° NW 10:16:27 10° NE
Meteor 2-3 Rocket 4.3 10:07:37 10° SW 10:12:50 39° WNW 10:18:03 10° N
Cosmos 1844 4.0 10:08:54 10° NNW 10:14:27 49° WSW 10:19:58 10° S
